Zurück zum Katalog

STARLINK-31879

AktivKommunikationVLEO
NORAD 59937·PAYLOAD·🇺🇸 United States

Gestartet Jun 1, 2024 von Cape Canaveral Space Force Station

Loading…

Nächste Überflüge (nächste 24 Stunden)

TLE

AktuellSource: CelesTrak SupGP

Epoche: Sep 14, 2026, 21:12 UTC

1 59937C 24106R   26257.88381944 -.00014390  00000+0 -52131-3 0  2573
2 59937  43.0032 344.4919 0001684 273.3813  44.6920 15.27578089    15

Verfolge STARLINK-31879 in Echtzeit mit AllMySat

Download on the App Store